Dewpoint
7 6 6 5 4 4 4 4 4 3 1 -2 -3 -3 0 3 3 4 5 6 7 7 7 7 7 7 7 7 7 6 6 5 1 -4 -8 -11 -12 -15
6 6 6 6 4 5 5 5 4 4 4 1 -1 1 2 4 4 4 6 6 7 7 7 7 7 7 6 7 7 6 6 1 -4 -8 -12 -14 -18 -20
5 5 5 5 5 5 5 5 4 3 2 1 1 1 2 3 4 4 5 6 7 7 7 7 8 7 6 7 6 6 -0 -6 -10 -12 -15 -19 -22 -22
4 4 4 5 5 5 4 3 2 2 3 2 2 3 3 4 4 5 6 6 7 7 8 7 7 7 7 6 6 3 2 -3 -14 -18 -21 -22 -23 -23
3 3 4 5 5 4 4 4 2 3 4 4 4 5 5 5 5 6 7 7 8 7 7 7 7 7 6 5 3 4 -1 -15 -20 -22 -23 -23 -25 -25
3 3 4 4 4 4 4 5 4 4 5 5 6 6 7 7 7 7 7 7 7 7 7 6 5 5 4 3 2 -6 -19 -22 -22 -22 -23 -25 -25 -25
4 4 5 5 5 5 5 5 6 6 6 6 6 7 7 7 7 7 8 7 7 6 5 5 4 3 0 -6 -15 -20 -22 -22 -22 -23 -24 -24 -24 -24
5 5 6 6 7 7 7 7 7 7 7 7 7 8 8 7 7 8 7 6 5 5 5 4 3 -2 -11 -17 -21 -22 -22 -20 -21 -23 -23 -23 -23 -23
7 7 7 7 8 8 8 8 8 8 8 8 8 8 8 7 8 7 6 5 4 3 3 1 -8 -17 -19 -22 -22 -22 -22 -18 -22 -23 -22 -22 -22 -23
9 9 8 8 9 9 9 9 9 8 8 8 8 8 8 7 6 5 4 4 3 2 -1 -12 -20 -21 -22 -21 -22 -22 -19 -21 -22 -22 -22 -22 -23 -23
10 9 10 9 9 9 9 9 8 8 8 8 8 8 6 5 4 4 2 2 0 -3 -18 -22 -21 -21 -21 -22 -22 -21 -21 -21 -21 -21 -22 -22 -23 -24
10 10 9 10 9 9 9 8 8 7 7 6 4 4 3 3 2 2 1 1 -11 -22 -21 -21 -20 -21 -21 -21 -21 -21 -21 -21 -21 -21 -22 -22 -23 -25
10 9 9 9 9 9 8 8 7 7 4 3 3 3 2 1 1 -2 -11 -22 -22 -21 -20 -20 -20 -20 -20 -19 -19 -19 -20 -21 -21 -22 -22 -24 -25 -25
9 9 9 9 8 8 7 5 4 3 3 2 2 1 0 -2 -13 -22 -22 -21 -20 -20 -20 -20 -20 -20 -20 -20 -20 -20 -21 -22 -22 -22 -23 -24 -25 -25
9 9 8 6 5 4 4 4 4 3 3 1 0 -2 -15 -22 -22 -21 -20 -20 -19 -19 -19 -19 -19 -19 -21 -21 -21 -22 -22 -22 -21 -22 -22 -22 -23 -24
6 5 4 4 3 3 3 3 2 0 -0 -0 -8 -22 -22 -21 -20 -20 -19 -19 -19 -19 -19 -19 -20 -20 -21 -22 -23 -22 -21 -20 -20 -21 -21 -21 -22 -23
6 4 3 2 2 2 0 -0 -1 -1 -9 -21 -22 -22 -20 -20 -19 -19 -19 -19 -19 -19 -19 -20 -21 -22 -23 -24 -24 -22 -22 -21 -20 -20 -20 -20 -20 -22
3 3 1 -0 -0 -1 -1 -1 -7 -19 -21 -22 -21 -20 -19 -19 -18 -18 -18 -19 -18 -19 -20 -21 -24 -24 -25 -25 -23 -20 -19 -19 -19 -20 -19 -19 -20 -22
1 -0 -1 -1 -1 -2 -4 -17 -21 -21 -21 -20 -20 -18 -17 -17 -17 -18 -19 -18 -19 -21 -23 -24 -24 -24 -24 -22 -25 -21 -20 -20 -19 -19 -19 -19 -19 -21
-1 -1 -2 -2 -4 -9 -17 -21 -21 -21 -20 -19 -18 -17 -17 -17 -18 -18 -18 -20 -22 -24 -24 -24 -24 -24 -22 -19 -18 -20 -19 -19 -18 -18 -19 -18 -19 -19
-3 -3 -4 -9 -19 -21 -21 -20 -19 -19 -19 -17 -17 -17 -18 -19 -18 -19 -21 -23 -24 -25 -25 -24 -23 -21 -19 -18 -19 -19 -21 -20 -19 -18 -19 -18 -17 -16
-4 -6 -10 -13 -11 -14 -17 -19 -19 -18 -17 -17 -17 -18 -19 -18 -20 -22 -24 -25 -25 -22 -21 -21 -20 -19 -19 -20 -19 -18 -19 -19 -20 -20 -20 -18 -15 -15
-15 -19 -20 -17 -14 -13 -11 -15 -18 -17 -17 -17 -18 -19 -18 -21 -23 -25 -25 -22 -21 -19 -19 -20 -20 -20 -20 -19 -17 -17 -18 -18 -18 -18 -21 -19 -18 -17
Wind_Speed
36 32 31 28 28 25 23 20 18 17 19 17 15 15 16 16 15 16 16 17 18 19 21 24 26 27 27 28 28 30 30 30 29 30 31 30 29 28
35 34 32 29 27 26 25 23 22 21 23 16 10 10 12 16 16 16 18 20 20 22 25 26 27 30 28 29 30 32 33 31 32 31 31 32 31 31
36 34 32 30 29 28 27 26 24 24 26 26 22 19 18 17 18 19 21 24 25 26 27 29 28 33 30 32 31 32 29 30 30 32 31 31 31 31
37 34 33 30 31 30 28 28 27 25 26 27 23 22 20 17 20 21 25 27 28 28 28 30 34 33 32 31 32 28 29 30 29 29 29 28 29 30
36 34 33 32 32 31 31 30 28 27 27 28 27 24 23 22 22 24 25 27 29 30 33 32 32 30 28 29 25 27 26 23 26 26 27 28 28 30
36 35 34 33 32 30 31 32 29 28 27 26 27 27 27 26 27 28 28 28 30 32 29 31 24 26 24 24 25 24 19 23 24 25 25 28 30 31
38 36 35 34 29 29 30 31 30 29 28 27 27 29 30 30 31 34 34 34 32 26 24 21 22 21 20 20 18 19 21 22 24 24 27 29 31 32
39 39 37 33 32 32 30 30 29 28 29 29 29 32 32 32 35 39 37 32 23 23 21 20 18 17 16 15 17 20 21 22 21 25 29 29 32 33
40 39 38 35 33 32 31 32 31 30 31 31 33 32 35 36 41 36 28 23 21 19 16 15 13 12 11 14 18 20 19 20 24 28 29 31 34 34
37 37 37 37 37 30 31 33 32 32 33 35 36 37 38 36 28 23 21 17 15 14 11 9 8 8 11 14 16 16 15 20 28 28 30 32 33 34
35 36 36 34 38 27 29 35 33 32 35 35 34 36 30 25 20 15 15 13 11 8 8 7 6 8 11 11 12 11 19 25 26 28 29 30 32 36
37 37 38 37 36 28 30 33 32 30 32 28 19 14 13 13 12 11 11 9 4 6 5 5 6 8 5 8 8 18 20 23 27 29 30 29 33 38
36 36 36 34 33 33 30 29 28 28 21 14 14 13 10 9 7 6 4 6 5 4 4 6 8 10 10 13 15 19 22 27 28 29 29 33 32 34
30 33 32 34 35 32 31 25 20 17 17 16 13 9 9 5 6 8 6 4 1 1 4 7 10 13 16 21 23 25 26 25 28 28 35 34 32 31
35 30 31 29 19 20 18 17 17 20 20 17 10 8 10 11 9 6 4 1 3 5 7 9 12 15 18 20 24 26 30 29 19 32 34 34 35 35
30 29 28 25 28 27 24 19 21 18 15 12 13 15 14 10 7 4 3 2 5 8 10 12 15 16 17 19 22 24 22 24 30 31 34 36 36 33
26 33 33 34 32 29 26 26 21 18 17 18 17 15 12 10 7 4 1 3 5 7 9 11 15 18 19 20 20 20 23 25 28 32 35 38 39 38
33 34 35 32 30 27 25 23 21 22 20 19 17 14 11 9 6 3 1 4 6 10 13 17 18 19 19 17 19 22 25 29 31 32 33 39 44 41
28 32 32 28 26 24 23 23 24 22 20 17 15 12 9 6 3 1 2 5 8 11 14 17 20 22 24 24 17 19 28 29 31 33 35 35 42 43
25 25 25 24 23 23 25 25 23 22 20 17 14 10 7 3 1 2 4 7 9 10 12 14 17 19 20 22 24 25 21 27 29 34 38 41 40 38
21 21 21 24 26 27 24 23 20 19 17 15 11 8 5 2 2 4 7 9 10 11 12 13 16 18 18 19 20 26 25 22 24 29 36 42 42 41
21 24 27 27 25 24 24 23 21 18 16 12 9 6 4 2 3 5 6 8 10 12 13 14 14 15 15 18 23 28 32 32 26 26 29 32 30 33
23 26 27 25 24 23 21 21 19 16 13 10 7 5 3 2 3 3 5 8 9 11 13 14 15 16 17 20 25 30 33 34 36 39 35 31 31 33
Wind_Direction
225 229 233 236 239 242 243 245 249 254 267 266 259 247 232 232 231 239 242 250 262 270 279 286 288 294 294 295 298 302 301 304 304 306 308 309 311 313
225 228 231 234 235 238 242 245 247 252 257 260 246 241 233 231 235 244 250 256 266 270 278 283 289 286 297 288 300 301 301 304 306 308 312 315 315 317
225 227 230 233 234 236 240 245 248 249 253 258 257 253 251 246 249 254 258 263 270 275 278 291 287 289 296 289 295 297 296 303 309 310 311 312 313 314
223 226 230 230 232 235 238 243 246 249 253 262 265 266 264 261 260 257 259 267 272 276 278 284 279 274 287 285 292 294 301 304 308 308 309 311 311 312
225 227 229 230 232 236 239 242 245 248 251 261 267 272 271 265 264 265 265 268 269 268 275 273 277 274 284 293 290 294 300 305 304 307 309 314 317 318
228 230 233 235 235 238 244 244 247 251 253 257 265 271 273 275 275 273 272 272 272 267 266 263 272 284 291 290 294 297 304 302 309 310 318 322 322 322
230 234 236 238 239 241 246 250 250 252 254 254 258 263 268 271 275 276 270 263 259 247 262 270 279 284 290 293 297 296 301 307 309 317 322 323 321 320
235 236 237 238 239 243 248 249 247 250 251 255 260 262 264 270 272 271 261 250 240 248 261 268 280 288 289 297 299 300 306 305 313 322 320 321 317 318
238 240 240 238 238 245 244 246 248 249 255 261 262 267 269 270 269 260 247 239 246 256 267 278 284 286 290 298 299 304 305 308 318 321 320 319 316 316
240 244 245 240 238 245 246 247 248 252 257 257 258 258 264 263 247 239 243 242 243 257 276 281 266 272 292 298 298 305 305 312 317 317 316 316 318 318
241 247 247 245 240 242 249 244 247 248 254 252 254 260 254 243 233 227 235 239 259 276 252 258 265 292 304 298 299 302 311 312 313 317 318 320 319 319
238 241 247 252 246 245 247 245 242 244 248 248 242 230 226 226 238 243 253 268 253 236 240 273 301 318 307 297 298 304 308 310 319 322 321 322 325 323
239 242 247 248 244 250 241 240 242 244 225 212 200 204 216 231 238 245 209 202 197 223 281 315 322 322 319 305 308 315 321 324 324 323 321 328 331 329
233 237 236 244 237 231 226 220 212 203 197 200 204 209 228 202 179 180 172 172 189 343 339 333 330 329 330 326 327 326 326 329 329 326 328 329 334 332
228 232 228 219 198 182 185 186 194 196 198 200 205 191 165 160 158 148 137 111 10 356 343 333 331 333 331 330 326 333 329 336 331 330 331 337 341 339
209 196 187 177 175 178 179 187 189 187 196 199 171 162 156 149 143 123 78 16 347 345 338 334 331 330 330 331 331 328 330 333 332 338 337 338 342 341
201 181 175 177 174 170 171 174 180 184 168 159 156 152 148 144 137 127 85 353 341 332 327 328 332 334 336 336 336 330 331 333 337 338 336 335 341 346
181 173 174 169 166 167 171 169 162 160 154 153 152 152 149 144 144 130 27 338 329 334 334 333 333 335 338 344 346 342 341 339 338 338 337 335 335 343
177 167 168 165 165 164 155 157 156 153 151 152 149 148 150 146 138 105 346 345 342 341 341 344 341 343 345 348 360 355 340 341 337 336 337 337 335 336
170 162 160 157 149 149 155 157 156 155 153 152 152 150 150 143 103 17 353 348 352 357 356 344 339 345 349 348 340 355 2 345 341 338 337 336 335 335
159 156 147 142 149 151 151 153 155 154 153 153 152 149 145 125 17 1 359 359 0 5 1 353 353 352 347 342 341 347 352 353 338 333 336 338 338 338
150 145 145 150 155 157 158 159 158 157 157 155 152 147 140 99 34 10 10 8 7 13 14 8 0 355 351 351 346 344 343 346 346 340 341 344 336 323
146 150 150 153 154 156 158 161 161 159 157 153 159 150 135 75 36 28 27 33 27 15 13 10 3 356 353 345 340 340 340 342 341 339 341 348 348 345
Height
1501 1505 1508 1512 1516 1519 1521 1523 1524 1524 1522 1525 1527 1527 1527 1529 1530 1532 1534 1534 1534 1533 1532 1530 1529 1527 1525 1523 1519 1515 1512 1508 1504 1500 1497 1493 1489 1486
1495 1499 1502 1507 1511 1514 1516 1518 1519 1521 1519 1521 1523 1524 1525 1526 1527 1528 1530 1529 1528 1528 1527 1525 1523 1520 1518 1516 1514 1510 1506 1503 1498 1494 1491 1489 1485 1481
1490 1492 1495 1501 1505 1509 1511 1513 1514 1515 1514 1515 1518 1520 1522 1524 1524 1525 1524 1523 1522 1521 1520 1518 1516 1514 1512 1510 1507 1503 1499 1496 1493 1490 1487 1483 1481 1476
1482 1486 1489 1494 1498 1502 1504 1506 1508 1511 1511 1510 1512 1515 1517 1518 1518 1518 1517 1516 1515 1514 1514 1512 1509 1506 1504 1502 1500 1497 1494 1490 1487 1485 1481 1478 1477 1474
1475 1480 1482 1488 1492 1495 1497 1500 1502 1505 1506 1505 1505 1508 1510 1511 1512 1513 1511 1510 1509 1507 1507 1506 1502 1499 1498 1497 1495 1490 1488 1485 1483 1480 1477 1474 1470 1467
1469 1473 1477 1481 1485 1488 1492 1495 1497 1499 1500 1501 1501 1500 1503 1503 1504 1505 1504 1503 1501 1500 1499 1498 1496 1495 1493 1492 1489 1486 1482 1481 1479 1475 1472 1469 1465 1462
1462 1466 1471 1475 1478 1482 1485 1489 1491 1494 1494 1495 1495 1495 1496 1497 1497 1497 1495 1495 1493 1492 1493 1492 1491 1489 1487 1486 1484 1481 1479 1476 1475 1472 1468 1464 1461 1456
1454 1460 1464 1467 1470 1475 1479 1482 1484 1485 1487 1487 1487 1488 1490 1490 1491 1490 1486 1488 1485 1486 1486 1486 1484 1483 1483 1482 1480 1479 1476 1472 1470 1467 1464 1460 1456 1451
1447 1451 1455 1458 1463 1468 1471 1473 1475 1477 1479 1480 1480 1480 1482 1481 1481 1480 1480 1479 1480 1482 1480 1481 1481 1481 1480 1479 1477 1476 1472 1468 1468 1464 1458 1455 1451 1446
1439 1442 1446 1451 1454 1459 1462 1465 1467 1468 1470 1471 1472 1472 1473 1473 1471 1473 1475 1474 1474 1475 1475 1477 1477 1476 1477 1475 1472 1471 1470 1467 1464 1459 1455 1450 1444 1440
1430 1434 1437 1441 1444 1448 1453 1455 1457 1459 1461 1462 1463 1464 1463 1465 1468 1465 1470 1470 1470 1469 1472 1474 1475 1474 1475 1473 1470 1469 1467 1463 1460 1455 1450 1445 1440 1434
1421 1425 1429 1433 1436 1439 1445 1448 1448 1451 1453 1455 1458 1459 1460 1462 1465 1464 1466 1464 1467 1471 1473 1473 1470 1470 1471 1470 1467 1465 1463 1459 1455 1450 1445 1441 1436 1427
1411 1415 1419 1422 1427 1432 1436 1439 1442 1445 1448 1452 1452 1454 1456 1460 1460 1460 1463 1466 1466 1469 1470 1469 1469 1469 1468 1467 1465 1462 1457 1453 1448 1445 1440 1436 1432 1425
1402 1405 1410 1414 1417 1422 1428 1432 1435 1439 1443 1449 1452 1452 1454 1457 1461 1464 1466 1466 1467 1466 1467 1467 1468 1468 1464 1463 1459 1457 1453 1449 1442 1438 1433 1429 1426 1421
1392 1397 1402 1406 1412 1417 1422 1428 1433 1435 1436 1445 1447 1452 1458 1460 1462 1463 1464 1466 1467 1466 1466 1467 1466 1464 1463 1458 1457 1453 1445 1441 1438 1434 1428 1423 1419 1414
1384 1389 1393 1399 1407 1413 1419 1422 1430 1436 1440 1442 1445 1450 1454 1459 1462 1464 1464 1465 1465 1464 1465 1466 1466 1463 1460 1457 1454 1450 1446 1440 1435 1430 1423 1418 1416 1412
1375 1380 1389 1398 1402 1407 1415 1422 1428 1433 1437 1441 1446 1451 1454 1458 1459 1462 1463 1463 1464 1463 1463 1463 1462 1460 1458 1455 1451 1447 1442 1437 1432 1426 1419 1413 1410 1406
1377 1379 1392 1397 1400 1407 1414 1421 1427 1434 1436 1440 1444 1450 1454 1457 1459 1459 1461 1463 1463 1462 1460 1457 1456 1454 1454 1454 1448 1442 1438 1433 1428 1424 1419 1410 1403 1401
1381 1384 1392 1394 1399 1409 1415 1423 1429 1433 1435 1443 1447 1451 1455 1455 1458 1458 1461 1462 1461 1458 1455 1452 1454 1451 1447 1445 1448 1443 1435 1430 1424 1420 1416 1410 1401 1394
1387 1388 1391 1396 1402 1411 1418 1425 1431 1435 1437 1442 1447 1451 1454 1457 1459 1459 1460 1460 1460 1458 1455 1454 1454 1450 1446 1443 1438 1438 1435 1428 1423 1417 1410 1404 1398 1391
1386 1390 1394 1400 1407 1414 1421 1427 1432 1436 1440 1443 1448 1450 1454 1456 1458 1458 1459 1459 1459 1457 1456 1454 1452 1449 1445 1442 1438 1433 1432 1431 1426 1417 1410 1400 1390 1381
1389 1393 1400 1405 1413 1417 1422 1427 1433 1437 1442 1444 1447 1449 1451 1454 1454 1456 1455 1456 1457 1458 1456 1453 1452 1448 1444 1440 1435 1431 1425 1423 1422 1417 1412 1405 1394 1384
1395 1399 1404 1411 1414 1420 1425 1429 1434 1437 1440 1442 1447 1446 1449 1451 1453 1453 1454 1454 1456 1458 1455 1452 1449 1447 1443 1438 1434 1429 1424 1419 1412 1406 1402 1399 1392 1385